Flag for Germany Weather past 2 weeks in Hannover, Lower Saxony, Germany

Now
43 °F

Passing clouds.


Feels Like: 39 °F
Forecast: 35 / 53 °F
Wind: 7 mph from Southwest

Location: Hannover

Current Time: Mar 6, 2015 at 11:28:50 PM

Latest Report: Mar 6, 2015 at 10:20 PM


Visibility: N/A

Pressure: 30.51 "Hg

Humidity: 76%

Dew point: 36 °F

Location of HannoverLocation

Historic Weather in Hannover — Graph

°F

Hannover temperature yesterday

Maximum temperature yesterday: 45 °F (at 1:20 PM)
Minimum temperature yesterday: 36 °F (at 3:50 AM)
Average temperature yesterday: 41 °F

Past Weeks' High & Low Weather Summary

 TemperatureHumidityPressure
High50 °F (Mar 1, 1:20 PM)100% (Feb 22, 3:20 AM)30.57 "Hg (Feb 22, 3:20 AM)
Low28 °F (Feb 28, 5:20 AM)46% (Feb 28, 3:50 PM)29.30 "Hg (Feb 21, 9:20 AM)
Average40 °F78%29.89 "Hg
* Reported Feb 19 9:20 PM — Mar 6 9:50 PM, Hannover, Weather by CustomWeather, © 2015

Note: Actual official high and low records may vary slightly from our data, if they occured in-between our weather recording intervals... More about our weather records

Advertising

Hannover weather history for previous 24 hours

 ConditionsComfort  
Time TempWeatherWind HumidityBarometerVisibility
9:50 PM
Fri, Mar 6
43 °FPassing clouds.7 mph76%30.51 "HgN/A
9:20 PM45 °FPassing clouds.7 mph71%30.51 "HgN/A
8:50 PM45 °FPassing clouds.6 mph71%30.51 "HgN/A
8:20 PM45 °FPassing clouds.7 mph71%30.54 "HgN/A
7:50 PM45 °FPassing clouds.7 mph71%30.54 "HgN/A
7:20 PM45 °FPassing clouds.6 mph71%30.54 "HgN/A
6:50 PM45 °FPassing clouds.6 mph71%30.54 "HgN/A
6:20 PM45 °FPassing clouds.8 mph71%30.54 "HgN/A
5:50 PM45 °FBroken clouds.9 mph71%30.51 "HgN/A
5:20 PM46 °FPartly sunny.8 mph71%30.51 "HgN/A
4:50 PM46 °FBroken clouds.8 mph71%30.51 "HgN/A
4:20 PM46 °FPartly sunny.10 mph71%30.51 "HgN/A
3:50 PM46 °FPartly sunny.9 mph71%30.51 "HgN/A
3:20 PM46 °FPartly sunny.12 mph71%30.51 "HgN/A
2:50 PM46 °FPartly sunny.12 mph71%30.51 "HgN/A
2:20 PM46 °FPartly sunny.12 mph66%30.51 "HgN/A
1:50 PM46 °FPartly sunny.12 mph66%30.51 "HgN/A
1:20 PM46 °FPartly sunny.12 mph71%30.51 "HgN/A
12:50 PM46 °FPartly sunny.9 mph66%30.54 "HgN/A
12:20 PM45 °FPartly sunny.8 mph71%30.54 "HgN/A
11:50 AM45 °FPartly sunny.10 mph71%30.57 "HgN/A
11:20 AM43 °FPartly sunny.8 mph76%30.54 "HgN/A
10:50 AM43 °FPartly sunny.10 mph76%30.54 "HgN/A
10:20 AM43 °FPartly sunny.9 mph76%30.54 "HgN/A
9:50 AM41 °FPartly sunny.8 mph81%30.54 "HgN/A
9:20 AM41 °FPartly sunny.7 mph81%30.54 "HgN/A
8:50 AM41 °FPartly sunny.8 mph81%30.54 "HgN/A
8:20 AM41 °FPartly sunny.8 mph76%30.54 "HgN/A
7:50 AM41 °FPartly sunny.8 mph81%30.54 "HgN/A
7:20 AM41 °FLight rain. Partly sunny.7 mph81%30.54 "HgN/A
6:50 AM41 °FLight rain. Passing clouds.6 mph81%30.54 "HgN/A
6:20 AM41 °FPassing clouds.6 mph81%30.54 "HgN/A
5:50 AM41 °FPassing clouds.7 mph81%30.54 "HgN/A
5:20 AM41 °FPassing clouds.7 mph76%30.54 "HgN/A
4:50 AM41 °FPassing clouds.8 mph81%30.54 "HgN/A
4:20 AM41 °FPassing clouds.7 mph81%30.54 "HgN/A
3:50 AM41 °FPassing clouds.7 mph81%30.54 "HgN/A
3:20 AM41 °FPassing clouds.7 mph81%30.54 "HgN/A
2:50 AM41 °FPassing clouds.6 mph81%30.57 "HgN/A
2:20 AM41 °FPassing clouds.6 mph81%30.57 "HgN/A
1:50 AM41 °FPassing clouds.8 mph81%30.57 "HgN/A
1:20 AM41 °FPassing clouds.5 mph81%30.57 "HgN/A
12:50 AM41 °FPassing clouds.7 mph81%30.57 "HgN/A
12:20 AM41 °FPassing clouds.6 mph81%30.57 "HgN/A
11:50 PM
Thu, Mar 5
41 °FPassing clouds.6 mph81%30.57 "HgN/A
11:20 PM43 °FPassing clouds.6 mph76%30.57 "HgN/A
Weather by CustomWeather, © 2015

See weather overviewHow to use our weather pages